CW5404 Weather Reports


time (UTC)temp
C
wind
direction
speed
KPH
gust
KPH
rain 1hr
cm
rain 24hr
cm
rain mn
cm
humidity
%
barometer
mb
20260902074500 15 199 0.0 4.8 0.00 0.00 0.00 84 1010.6
20260902074000 15 198 0.0 4.8 0.00 0.00 0.00 84 1010.8
20260902072500 15 196 0.0 0.0 0.00 0.00 0.00 83 1010.9
20260902071459 15 196 0.0 1.6 0.00 0.00 0.00 83 1010.9
20260902070500 15 196 1.6 9.7 0.00 0.00 0.00 82 1010.9
20260902065959 15 207 4.8 9.7 0.00 0.00 0.00 82 1010.9
20260902065459 15 188 1.6 8.0 0.00 0.00 0.00 82 1011.0
20260902064959 15 214 3.2 8.0 0.00 0.00 0.00 82 1011.0
20260902064459 15 220 4.8 8.0 0.00 0.00 0.00 82 1011.0
20260902063959 15 214 3.2 8.0 0.00 0.00 0.00 82 1011.1
20260902063459 15 196 3.2 9.7 0.00 0.00 0.00 82 1011.1
20260902062959 15 211 4.8 9.7 0.00 0.00 0.00 82 1011.1
20260902062459 15 189 6.4 8.0 0.00 0.00 0.00 82 1011.1
20260902061959 15 229 4.8 8.0 0.00 0.00 0.00 82 1011.1
20260902060959 15 207 3.2 8.0 0.00 0.00 0.00 82 1011.3
20260902060459 15 47 0.0 8.0 0.00 0.00 0.00 81 1011.3
20260902055959 16 212 4.8 8.0 0.00 0.00 0.00 81 1011.3
20260902055459 16 223 1.6 9.7 0.00 0.00 0.00 81 1011.5
20260902054959 16 202 1.6 9.7 0.00 0.00 0.00 79 1011.5
20260902054459 16 207 6.4 11.3 0.00 0.00 0.00 79 1011.5
20260902053459 16 211 6.4 9.7 0.00 0.00 0.00 78 1011.5
20260902052959 16 211 0.0 11.3 0.00 0.00 0.00 78 1011.6
20260902052459 16 265 6.4 11.3 0.00 0.00 0.00 78 1011.6
20260902051958 16 206 4.8 16.1 0.00 0.00 0.00 78 1011.6
20260902051458 16 214 4.8 16.1 0.00 0.00 0.00 78 1011.6
20260902050958 16 217 12.9 12.9 0.00 0.00 0.00 77 1011.6
20260902045959 16 190 8.0 9.7 0.00 0.00 0.00 77 1011.5
20260902045459 16 188 0.0 0.0 0.00 0.00 0.00 77 1011.6
20260902044959 16 188 0.0 0.0 0.00 0.00 0.00 77 1011.6
20260902043958 16 188 0.0 4.8 0.00 0.00 0.00 77 1011.5
20260902043458 16 188 3.2 8.0 0.00 0.00 0.00 77 1011.5
20260902042958 16 183 0.0 8.0 0.00 0.00 0.00 76 1011.6
20260902042458 16 190 3.2 6.4 0.00 0.00 0.00 76 1011.7
20260902040958 16 211 1.6 4.8 0.00 0.00 0.00 75 1011.6
20260902040458 16 210 0.0 4.8 0.00 0.00 0.00 75 1011.6
20260902035958 16 211 3.2 4.8 0.00 0.00 0.00 74 1011.6
20260902035458 16 256 0.0 0.0 0.00 0.00 0.00 74 1011.5
20260902034458 16 257 0.0 0.0 0.00 0.00 0.00 73 1011.5
20260902033958 16 257 0.0 0.0 0.00 0.00 0.00 72 1011.5
20260902033458 17 257 0.0 0.0 0.00 0.00 0.00 72 1011.5
20260902032958 17 257 0.0 0.0 0.00 0.00 0.00 72 1011.5
20260902032458 17 257 0.0 0.0 0.00 0.00 0.00 72 1011.4
20260902031958 17 260 0.0 0.0 0.00 0.00 0.00 71 1011.4
20260902031458 17 261 0.0 1.6 0.00 0.00 0.00 71 1011.4
20260902030957 17 262 0.0 3.2 0.00 0.00 0.00 70 1011.5
20260902030457 17 262 1.6 4.8 0.00 0.00 0.00 70 1011.5
20260902025957 17 232 0.0 4.8 0.00 0.00 0.00 70 1011.5
20260902025457 17 13 1.6 4.8 0.00 0.00 0.00 69 1011.6
20260902024958 17 337 1.6 4.8 0.00 0.00 0.00 69 1011.6
20260902023958 17 275 3.2 6.4 0.00 0.00 0.00 68 1011.4
20260902023458 17 344 3.2 6.4 0.00 0.00 0.00 67 1011.4
20260902022957 18 329 1.6 4.8 0.00 0.00 0.00 67 1011.4
20260902022457 18 5 1.6 4.8 0.00 0.00 0.00 66 1011.3
20260902021957 18 313 3.2 4.8 0.00 0.00 0.00 66 1011.3
20260902021457 18 19 1.6 8.0 0.00 0.00 0.00 66 1011.3
20260902020957 18 303 3.2 8.0 0.00 0.00 0.00 66 1011.4
20260902020457 18 221 8.0 9.7 0.00 0.00 0.00 65 1011.4
20260902015957 18 122 3.2 11.3 0.00 0.00 0.00 65 1011.4
20260902015457 18 360 3.2 11.3 0.00 0.00 0.00 64 1011.2
20260902014957 18 360 0.0 9.7 0.00 0.00 0.00 64 1011.2
20260902014457 18 360 1.6 8.0 0.00 0.00 0.00 63 1011.2
20260902013957 18 360 1.6 8.0 0.00 0.00 0.00 64 1011.1
20260902013457 18 360 3.2 8.0 0.00 0.00 0.00 65 1011.1
20260902012957 18 360 3.2 4.8 0.00 0.00 0.00 65 1011.1
20260902012457 18 360 1.6 4.8 0.00 0.00 0.00 66 1011.2
20260902011957 18 360 0.0 6.4 0.00 0.00 0.00 66 1011.2
20260902011457 18 360 3.2 6.4 0.00 0.00 0.00 66 1011.2
20260902010957 18 360 3.2 6.4 0.00 0.00 0.00 66 1011.1
20260902010457 18 360 3.2 6.4 0.00 0.00 0.00 66 1011.1
20260902005957 18 360 4.8 9.7 0.00 0.00 0.00 66 1011.1
20260902005457 18 360 0.0 9.7 0.00 0.00 0.00 66 1011.1
20260902004457 18 360 0.0 8.0 0.00 0.00 0.00 68 1011.1
20260902003957 18 360 4.8 8.0 0.00 0.00 0.00 68 1011.2
20260902003456 18 360 4.8 6.4 0.00 0.00 0.00 68 1011.2
20260902002956 18 167 1.6 6.4 0.00 0.00 0.00 69 1011.2
20260902002456 18 192 3.2 6.4 0.00 0.00 0.00 68 1011.2
20260902001957 18 355 3.2 12.9 0.00 0.00 0.00 68 1011.2
20260902001457 18 90 1.6 12.9 0.00 0.00 0.00 68 1011.2
20260902000957 18 334 0.0 9.7 0.00 0.00 0.00 68 1011.1
20260902000458 18 36 3.2 9.7 0.00 0.00 0.00 69 1011.1
20260901235957 18 171 1.6 6.4 0.00 0.00 0.00 70 1011.1
20260901234956 18 165 3.2 6.4 0.00 0.00 0.00 69 1011.0
20260901234456 18 331 0.0 4.8 0.00 0.00 0.00 69 1011.0
20260901233957 18 355 3.2 8.0 0.00 0.00 0.00 68 1011.1
20260901233457 18 224 3.2 8.0 0.00 0.00 0.00 68 1011.1
20260901232956 18 144 3.2 6.4 0.00 0.00 0.00 67 1011.1
20260901232456 18 336 3.2 9.7 0.00 0.00 0.00 66 1011.0
20260901231956 18 174 3.2 9.7 0.00 0.00 0.00 65 1011.0
20260901231457 18 55 1.6 6.4 0.00 0.00 0.00 63 1011.0
20260901230956 18 192 1.6 8.0 0.00 0.00 0.00 63 1011.0
20260901225956 18 227 1.6 6.4 0.00 0.00 0.00 64 1011.0
20260901225527 18 211 4.8 4.8 0.00 0.00 0.00 64 1011.0
20260901224456 18 304 0.0 4.8 0.00 0.00 0.00 63 1011.0
20260901223956 19 309 0.0 6.4 0.00 0.00 0.00 63 1011.0
20260901223456 19 126 0.0 8.0 0.00 0.00 0.00 63 1011.0
20260901222956 19 216 6.4 11.3 0.00 0.00 0.00 62 1011.0
20260901222456 19 248 3.2 11.3 0.00 0.00 0.00 61 1011.0
20260901221956 19 213 6.4 9.7 0.00 0.00 0.00 61 1011.0
20260901221456 20 360 1.6 9.7 0.00 0.00 0.00 60 1011.0
20260901220956 19 220 3.2 11.3 0.00 0.00 0.00 60 1011.0
20260901220457 19 329 1.6 11.3 0.00 0.00 0.00 60 1011.0
20260901215455 20 216 3.2 9.7 0.00 0.00 0.00 60 1010.9
20260901214455 20 190 0.0 9.7 0.00 0.00 0.00 61 1010.9
20260901213955 20 193 4.8 9.7 0.00 0.00 0.00 60 1010.7
20260901213455 20 213 6.4 6.4 0.00 0.00 0.00 60 1010.7
20260901212956 20 254 0.0 6.4 0.00 0.00 0.00 60 1010.7
20260901212456 20 320 0.0 6.4 0.00 0.00 0.00 60 1010.9
20260901211956 20 207 4.8 6.4 0.00 0.00 0.00 60 1010.9
20260901211456 20 295 1.6 12.9 0.00 0.00 0.00 61 1010.9
20260901210956 20 149 1.6 12.9 0.00 0.00 0.00 60 1010.8
20260901210456 20 214 8.0 11.3 0.00 0.00 0.00 58 1010.8
20260901205956 20 238 1.6 9.7 0.00 0.00 0.00 58 1010.8
20260901205455 20 360 3.2 4.8 0.00 0.00 0.00 58 1010.9
20260901204956 20 360 1.6 4.8 0.00 0.00 0.00 57 1010.9
20260901204456 20 360 3.2 6.4 0.00 0.00 0.00 58 1010.9
20260901203955 20 360 0.0 9.7 0.00 0.00 0.00 59 1010.9
20260901203456 20 360 4.8 9.7 0.00 0.00 0.00 60 1010.9
20260901202455 19 189 1.6 8.0 0.00 0.00 0.00 61 1011.0
20260901201955 19 194 3.2 11.3 0.00 0.00 0.00 60 1011.0
20260901201456 19 194 3.2 11.3 0.00 0.00 0.00 62 1011.0
20260901200455 19 163 3.2 16.1 0.00 0.00 0.00 62 1011.0
20260901195955 19 224 8.0 16.1 0.00 0.00 0.00 61 1011.0
20260901194955 20 200 1.6 8.0 0.00 0.00 0.00 59 1011.0
20260901194455 21 228 1.6 8.0 0.00 0.00 0.00 58 1011.1
20260901193955 20 51 0.0 11.3 0.00 0.00 0.00 60 1011.1
20260901193455 20 360 6.4 11.3 0.00 0.00 0.00 59 1011.1
20260901192955 20 360 3.2 11.3 0.00 0.00 0.00 62 1011.1
20260901192455 19 360 8.0 11.3 0.00 0.00 0.00 63 1011.4
20260901191955 20 360 11.3 11.3 0.00 0.00 0.00 62 1011.4
20260901191455 20 360 3.2 12.9 0.00 0.00 0.00 63 1011.4
20260901190955 19 360 8.0 12.9 0.00 0.00 0.00 63 1011.5
20260901190455 19 360 9.7 16.1 0.00 0.00 0.00 65 1011.5
20260901185955 18 360 3.2 16.1 0.00 0.00 0.00 67 1011.5
20260901185454 18 360 8.0 11.3 0.00 0.00 0.00 68 1011.6
20260901184955 18 360 3.2 9.7 0.00 0.00 0.00 68 1011.6
20260901183955 17 360 4.8 11.3 0.00 0.00 0.00 70 1011.8
20260901183455 17 360 4.8 14.5 0.00 0.00 0.00 71 1011.8
20260901182954 17 360 9.7 14.5 0.00 0.00 0.00 72 1011.8
20260901182454 17 360 14.5 14.5 0.00 0.00 0.00 72 1011.7
20260901175954 17 195 6.4 11.3 0.00 0.00 0.00 73 1011.6
20260901175454 18 254 4.8 11.3 0.00 0.00 0.00 72 1011.6
20260901174954 18 196 1.6 9.7 0.00 0.00 0.00 71 1011.6
20260901174455 18 195 4.8 11.3 0.00 0.00 0.00 70 1011.6
20260901173954 18 189 4.8 11.3 0.00 0.00 0.00 70 1011.5
20260901173455 18 224 8.0 11.3 0.00 0.00 0.00 69 1011.6
20260901172955 18 205 0.0 14.5 0.00 0.00 0.00 70 1011.6
20260901172454 18 191 4.8 14.5 0.00 0.00 0.00 69 1011.6
20260901171955 18 161 4.8 6.4 0.00 0.00 0.00 69 1011.6
20260901171454 18 360 3.2 9.7 0.00 0.00 0.00 73 1011.6
20260901170954 17 360 0.0 9.7 0.00 0.00 0.00 74 1011.5
20260901170454 17 360 3.2 9.7 0.00 0.00 0.00 75 1011.5
20260901165954 17 360 4.8 9.7 0.00 0.00 0.00 76 1011.5
20260901165454 17 360 4.8 9.7 0.00 0.00 0.00 77 1011.6
20260901164454 17 360 1.6 8.0 0.00 0.00 0.00 78 1011.6
20260901163454 17 360 1.6 8.0 0.00 0.00 0.00 79 1011.7
20260901162454 16 360 6.4 8.0 0.00 0.00 0.00 81 1011.9
20260901161954 16 360 4.8 8.0 0.00 0.00 0.00 82 1011.9
20260901161454 16 360 1.6 8.0 0.00 0.00 0.00 82 1011.9
20260901160954 16 360 3.2 8.0 0.00 0.00 0.00 82 1011.9
20260901160454 16 360 3.2 4.8 0.00 0.00 0.00 83 1011.8
20260901155454 16 360 0.0 1.6 0.00 0.00 0.00 84 1011.9
20260901154454 16 360 1.6 4.8 0.00 0.00 0.00 85 1011.9
20260901153954 15 360 0.0 4.8 0.00 0.00 0.00 86 1011.8
20260901153454 15 360 0.0 4.8 0.00 0.00 0.00 86 1011.8
20260901152954 15 360 0.0 4.8 0.00 0.00 0.00 86 1011.8
20260901152454 15 360 1.6 6.4 0.00 0.00 0.00 86 1011.8
20260901151953 15 360 0.0 6.4 0.00 0.00 0.00 86 1011.8
20260901151453 15 360 4.8 6.4 0.00 0.00 0.00 86 1011.8
20260901150953 15 360 4.8 4.8 0.00 0.00 0.00 86 1011.7
20260901150453 15 360 0.0 3.2 0.00 0.00 0.00 86 1011.7
20260901145953 15 360 1.6 3.2 0.00 0.00 0.00 87 1011.7
20260901145454 15 360 3.2 3.2 0.00 0.00 0.00 87 1011.6
20260901144954 14 360 0.0 0.0 0.00 0.00 0.00 87 1011.6
20260901144453 14 360 0.0 0.0 0.00 0.00 0.00 88 1011.6
20260901143954 14 360 0.0 0.0 0.00 0.00 0.00 88 1011.7
20260901143453 13 360 0.0 0.0 0.00 0.00 0.00 88 1011.7
20260901142953 13 360 0.0 0.0 0.00 0.00 0.00 88 1011.7
20260901142454 13 346 0.0 0.0 0.00 0.00 0.00 88 1011.5
20260901141953 13 350 0.0 0.0 0.00 0.00 0.00 89 1011.5
20260901141453 13 355 0.0 0.0 0.00 0.00 0.00 89 1011.5
20260901140953 13 355 0.0 0.0 0.00 0.00 0.00 89 1011.4
20260901135953 13 355 0.0 0.0 0.00 0.00 0.00 89 1011.4
20260901135453 13 355 0.0 0.0 0.00 0.00 0.00 89 1011.2
20260901134953 13 355 0.0 0.0 0.00 0.00 0.00 89 1011.2
20260901134453 13 355 0.0 0.0 0.00 0.00 0.00 89 1011.2
20260901133953 13 355 0.0 0.0 0.00 0.00 0.00 89 1011.2
20260901133453 13 355 0.0 0.0 0.00 0.00 0.00 90 1011.2
20260901132953 13 355 0.0 0.0 0.00 0.00 0.00 90 1011.2
20260901132453 13 355 0.0 0.0 0.00 0.00 0.00 90 1011.2
20260901131953 13 355 0.0 0.0 0.00 0.00 0.00 90 1011.2
20260901131453 12 355 0.0 0.0 0.00 0.00 0.00 90 1011.2
20260901130953 12 355 0.0 0.0 0.00 0.00 0.00 90 1011.2
20260901130453 12 355 0.0 0.0 0.00 0.00 0.00 90 1011.2
20260901125953 12 355 0.0 0.0 0.00 0.00 0.00 90 1011.2
20260901125453 12 355 0.0 0.0 0.00 0.00 0.00 91 1011.2
20260901124952 12 355 0.0 0.0 0.00 0.00 0.00 91 1011.2
20260901123453 12 355 0.0 0.0 0.00 0.00 0.00 91 1011.2
20260901122953 12 355 0.0 0.0 0.00 0.00 0.00 91 1011.2
20260901122452 12 355 0.0 0.0 0.00 0.00 0.00 91 1011.2
20260901121953 12 355 0.0 0.0 0.00 0.00 0.00 91 1011.2
20260901121453 12 355 0.0 0.0 0.00 0.00 0.00 91 1011.2
20260901120452 12 355 0.0 0.0 0.00 0.00 0.00 91 1011.2
20260901115952 12 355 0.0 0.0 0.00 0.00 0.00 91 1011.2
20260901115453 12 355 0.0 0.0 0.00 0.00 0.00 92 1011.2
20260901114952 12 355 0.0 0.0 0.00 0.00 0.00 92 1011.2
20260901114452 12 360 0.0 0.0 0.00 0.00 0.00 92 1011.2
20260901113952 11 360 0.0 0.0 0.00 0.00 0.00 92 1011.1
20260901112952 11 360 0.0 0.0 0.00 0.00 0.00 92 1011.1
20260901112452 11 360 0.0 0.0 0.00 0.00 0.00 92 1010.9
20260901111452 11 360 0.0 0.0 0.00 0.00 0.00 91 1010.9
20260901110452 11 360 0.0 0.0 0.00 0.00 0.00 91 1010.9
20260901105953 11 360 0.0 0.0 0.00 0.00 0.00 91 1010.9
20260901104952 11 360 0.0 0.0 0.00 0.00 0.00 90 1010.8
20260901104452 11 360 0.0 0.0 0.00 0.00 0.00 90 1010.8
20260901103952 11 360 0.0 0.0 0.00 0.00 0.00 90 1010.8
20260901102952 11 360 0.0 0.0 0.00 0.00 0.00 89 1010.8
20260901102452 11 360 0.0 0.0 0.00 0.00 0.00 89 1010.9
20260901101952 11 360 0.0 0.0 0.00 0.00 0.00 89 1010.9
20260901101452 11 360 0.0 0.0 0.00 0.00 0.00 89 1010.9
20260901100952 11 360 0.0 0.0 0.00 0.00 0.00 89 1010.8
20260901100452 11 360 0.0 0.0 0.00 0.00 0.00 89 1010.8
20260901095951 11 360 0.0 0.0 0.00 0.00 0.00 89 1010.8
20260901094952 12 360 0.0 0.0 0.00 0.00 0.00 89 1010.7
20260901093951 12 360 0.0 0.0 0.00 0.00 0.00 89 1010.9
20260901093451 12 360 0.0 0.0 0.00 0.00 0.00 89 1010.9
20260901092952 12 360 0.0 0.0 0.00 0.00 0.00 88 1010.9
20260901092451 12 360 0.0 0.0 0.00 0.00 0.00 88 1010.8
20260901091951 12 360 0.0 0.0 0.00 0.00 0.00 88 1010.8
20260901091451 12 360 0.0 0.0 0.00 0.00 0.00 88 1010.8
20260901090951 12 360 0.0 0.0 0.00 0.00 0.00 87 1010.6
20260901090451 12 360 0.0 0.0 0.00 0.00 0.00 87 1010.6
20260901085951 12 360 0.0 0.0 0.00 0.00 0.00 87 1010.6
20260901085451 12 360 0.0 0.0 0.00 0.00 0.00 87 1010.5
20260901084951 12 360 0.0 0.0 0.00 0.00 0.00 87 1010.5
20260901084451 12 360 0.0 0.0 0.00 0.00 0.00 87 1010.5
20260901083451 12 360 0.0 0.0 0.00 0.00 0.00 86 1010.4
20260901082952 13 360 0.0 0.0 0.00 0.00 0.00 86 1010.4
20260901082451 13 360 0.0 0.0 0.00 0.00 0.00 86 1010.5
20260901081951 13 360 0.0 0.0 0.00 0.00 0.00 86 1010.5
20260901081451 13 360 0.0 0.0 0.00 0.00 0.00 86 1010.5
20260901080951 13 360 0.0 0.0 0.00 0.00 0.00 85 1010.4
20260901080451 13 360 0.0 0.0 0.00 0.00 0.00 85 1010.4
20260901075951 13 360 0.0 0.0 0.00 0.00 0.00 85 1010.4